Regional Weather Roundup
Issued by NWS

Home | Current Version | Previous Version | Text Only | Print | Product List | Glossary Off
Versions: 1 2 3 4 5 6 7 8 9 10 11 12 13 14 15 16 17 18 19 20 21 22 23 24 25 26 27 28 29 30 31 32 33 34 35 36 37 38 39 40 41 42 43 44 45 46 47 48 49 50

000
ASUS43 KDMX 232007
RWRIA

WEATHER ROUNDUP FOR IOWA
NATIONAL WEATHER SERVICE DES MOINES IA
300 PM CDT WED JUL 23 2014

NOTE: "FAIR" INDICATES FEW OR NO CLOUDS BELOW 12,000 FEET WITH NO
SIGNIFICANT WEATHER AND/OR OBSTRUCTIONS TO VISIBILITY.

* - THESE STATIONS ARE NOT NWS STATIONS...THUS NOT UNDER NWS
QUALITY CONTROL.  THEY ALSO DO NOT REPORT WEATHER SUCH
AS PRECIPITATION OR FOG.

IAZ001>003-012>014-020>022-031>034-043>046-232100-
   NORTHWEST IOWA

CITY           SKY/WX    TMP DP  RH WIND       PRES   REMARKS
CARROLL *      MOSUNNY   79  61  53 NE5       30.22F HX  80
CHEROKEE *     SUNNY     79  54  41 N3        30.24S
DENISON *      SUNNY     79  61  53 NE10      30.21F HX  80
LE MARS *      SUNNY     79  57  47 VRB6G14   30.24F HX  80
ORANGE CITY *  SUNNY     81  54  39 NE5       30.25F HX  80
SHELDON *      SUNNY     77  57  50 CALM      30.24F
SIOUX CITY     SUNNY     83  57  41 VRB5      30.22F HX  82
SPENCER        SUNNY     81  56  42 CALM      30.24F HX  81
STORM LAKE *   SUNNY     79  59  50 CALM      30.25F HX  80
$$

IAZ055>058-069>071-079>083-090>094-232100-
   SOUTHWEST IOWA

CITY           SKY/WX    TMP DP  RH WIND       PRES   REMARKS
ATLANTIC *     SUNNY     81  63  54 NE9       30.20S HX  82
AUDUBON *      SUNNY     82  68  61 NE7       30.23F HX  85
CLARINDA *     MOSUNNY   84  64  51 E7        30.20S HX  86
COUNCIL BLFS * SUNNY     82  61  47 VRB7      30.20F HX  83
CRESTON *      SUNNY     81  63  54 NE8       30.20S HX  82
HARLAN  *      SUNNY     81  61  50 N10       30.25F HX  81
LAMONI         SUNNY     82  62  50 N8G16     30.17F HX  83
RED OAK *      SUNNY     82  61  47 NE7       30.21R HX  83
SHENANDOAH *   SUNNY     82  64  54 NE12      30.20S HX  84
$$

IAZ047>049-059>061-072>074-084-232100-
   CENTRAL IOWA

CITY           SKY/WX    TMP DP  RH WIND       PRES   REMARKS
AMES           MOSUNNY   81  58  45 E6        30.19F HX  81
ANKENY *       MOSUNNY   81  59  47 E8        30.18F HX  81
CHARITON *     MOSUNNY   79  61  53 NE10      30.18F HX  80
DES MOINES     MOSUNNY   84  58  40 NE12      30.17F HX  83
GRINNELL*      PTSUNNY   79  59  50 N7        30.21S HX  80
KNOXVILLE *    SUNNY     81  57  44 N10       30.18S HX  81
MARSHALLTOWN   MOSUNNY   80  56  43 NE7       30.20F HX  80
PELLA *        MOSUNNY   82  57  42 NE8       30.20F HX  82
PERRY *          N/A     81  59  47 CALM      30.21S HX  81
$$

IAZ004>006-015-016-023>025-035-036-232100-
   NORTH CENTRAL IOWA

CITY           SKY/WX    TMP DP  RH WIND       PRES   REMARKS
ALGONA *       MOSUNNY   81  57  44 E6        30.24F HX  81
CLARION *      MOSUNNY   79  55  44 VRB6      30.23F
ESTHERVILLE    MOSUNNY   77  58  51 VRB5      30.24F
FORT DODGE *   MOSUNNY   79  57  47 NE3       30.23F HX  80
MASON CITY     MOSUNNY   80  57  45 VRB3      30.24F HX  80
FOREST CITY *  PTSUNNY   79  55  44 NE5       30.23F
IOWA FALLS *     N/A     79  54  41 N5        30.23F
$$

IAZ007>011-017>019-026>030-037>042-050>054-066-232100-
   NORTHEAST IOWA

CITY           SKY/WX    TMP DP  RH WIND       PRES   REMARKS
CEDAR RAPIDS   MOSUNNY   79  54  41 NE12      30.18F
CHARLES CITY * MOSUNNY   77  55  47 VRB5      30.23F
CLINTON *      MOSUNNY   77  57  50 N8G17     30.20F
DECORAH *      PTSUNNY   75  55  50 N6G13     30.21F
DUBUQUE        PTSUNNY   76  58  53 NE9       30.20F
MONTICELLO *   MOSUNNY   77  55  47 NE7       30.19S
OELWEIN *      SUNNY     77  55  47 CALM      30.22S
WATERLOO       PTSUNNY   80  54  40 NE7       30.20F HX  80
$$

IAZ064-065-067-068-078-232100-
   EAST CENTRAL IOWA

CITY           SKY/WX    TMP DP  RH WIND       PRES   REMARKS
DAVENPORT      MOSUNNY   78  58  49 N9        30.18F
IOWA CITY      MOSUNNY   79  58  48 N12       30.19F HX  80
MT. PLEASANT * MOSUNNY   79  57  47 N8        30.17S HX  80
MUSCATINE *    MOSUNNY   81  54  39 NE8G16    30.17S HX  80
QUAD CITIES    MOSUNNY   80  55  42 N13       30.16F HX  80
$$

IAZ062-063-075>077-085>089-095>099-232100-
   SOUTHEAST IOWA

CITY           SKY/WX    TMP DP  RH WIND       PRES   REMARKS
BURLINGTON     PTSUNNY   78  59  51 NE13      30.15F
FAIRFIELD *    MOSUNNY   79  59  50 NE13      30.18F HX  80
FORT MADISON * MOSUNNY   79  63  57 N12       30.16F HX  80
KEOKUK *       PTSUNNY   79  64  61 NE9       30.14S HX  81
OSKALOOSA *      N/A     79  61  53 NE13      30.19S HX  80
CENTERVILLE *  SUNNY     81  63  54 N7G16     30.18F HX  82
OTTUMWA        MOSUNNY   80  58  46 N13       30.17F HX  80
WASHINGTON *   MOSUNNY   79  57  47 NE12      30.18F HX  80
$$

ABBREVIATIONS USED IN REMARKS
   TC - TEMPERATURES IN CELSIUS
  WCI - WIND CHILL INDEX
   HX - HEAT INDEX
  VSB - VISIBILITY
$$




USA.gov is the U.S. government's official web portal to all federal, state and local government web resources and services.